This is the latest recevied weather packets stored in our database for station/object NA9VY-8. If no packets are shown the sender has not sent any weather packets the latest 10 day(s).
| Time | Temp. | Humidity | Pressure | Rain* | Wind** | Luminosity | Snow |
|---|---|---|---|---|---|---|---|
| 1777566297 | 13.33° C | 44% | 1022.5 hPa | 0 mm | - | 679 W/m² | - |
| 1777565994 | 13.33° C | 46% | 1022.6 hPa | 0 mm | - | 619 W/m² | - |
| 1777565689 | 12.78° C | 47% | 1023 hPa | 0 mm | - | 666 W/m² | - |
| 1777565386 | 12.78° C | 46% | 1023 hPa | 0 mm | - | 815 W/m² | - |
| 1777565082 | 12.78° C | 48% | 1023.1 hPa | 0 mm | - | 741 W/m² | - |
| 1777564778 | 12.78° C | 48% | 1023.1 hPa | 0 mm | - | 843 W/m² | - |
| 1777564473 | 12.22° C | 48% | 1023.2 hPa | 0 mm | - | 789 W/m² | - |
| 1777564169 | 12.78° C | 48% | 1023.5 hPa | 0 mm | - | 771 W/m² | - |
| 1777563866 | 12.78° C | 58% | 1023.2 hPa | 0 mm | - | 859 W/m² | - |
| 1777563562 | 12.22° C | 51% | 1023.5 hPa | 0 mm | - | 834 W/m² | - |
| 1777563261 | 12.22° C | 58% | 1023.1 hPa | 0 mm | - | 777 W/m² | - |
| 1777562958 | 11.67° C | 58% | 1023.1 hPa | 0 mm | - | 794 W/m² | - |
| 1777562654 | 11.67° C | 58% | 1023.3 hPa | 0 mm | - | 746 W/m² | - |
| 1777562354 | 12.22° C | 63% | 1023.2 hPa | 0 mm | - | 610 W/m² | - |
| 1777562050 | 11.67° C | 58% | 1023.3 hPa | 0 mm | - | 634 W/m² | - |
| 1777561747 | 11.67° C | 63% | 1023.6 hPa | 0 mm | - | 254 W/m² | - |
| 1777561443 | 11.67° C | 62% | 1023.8 hPa | 0 mm | - | 625 W/m² | - |
| 1777561138 | 11.67° C | 65% | 1023.6 hPa | 0 mm | - | 548 W/m² | - |
| 1777560833 | 11.11° C | 63% | 1023.7 hPa | 0 mm | - | 619 W/m² | - |
| 1777560531 | 11.11° C | 68% | 1023.8 hPa | 0 mm | - | 579 W/m² | - |
| 1777560229 | 10.56° C | 66% | 1023.8 hPa | 0 mm | - | 505 W/m² | - |
| 1777559925 | 10.56° C | 68% | 1023.9 hPa | 0 mm | - | 604 W/m² | - |
| 1777559620 | 10° C | 67% | 1023.9 hPa | 0 mm | - | 559 W/m² | - |
| 1777559319 | 10.56° C | 68% | 1024 hPa | 0 mm | - | 539 W/m² | - |
| 1777559014 | 10° C | 70% | 1024 hPa | 0 mm | - | 547 W/m² | - |
* Rain latest hour (hover to see other rain measurements)
** Current wind speed in m/s (hover to see current wind gust speed)